Regional Weather Roundup
Issued by NWS

Home | Current Version | Previous Version | Text Only | Print | Product List | Glossary Off
Versions: 1 2 3 4 5 6 7 8 9 10 11 12 13 14 15 16 17 18 19 20 21 22 23 24 25 26 27 28 29 30 31 32 33 34 35 36 37 38 39 40 41 42 43 44 45 46 47 48 49 50

000
ASUS43 KOAX 210402
RWRNE

WEATHER ROUNDUP FOR NEBRASKA
NATIONAL WEATHER SERVICE OMAHA NE
1000 PM CST SAT DEC 20 2014

NOTES: SATELLITE DATA IS BEING USED TO AUGMENT CLOUD COVER ABOVE
       12000 FEET.
       "FAIR" INDICATES FEW OR NO CLOUDS BELOW 12,000 FEET WITH NO
       SIGNIFICANT WEATHER AND/OR OBSTRUCTIONS TO VISIBILITY.

  * THESE STATIONS DO NOT REPORT WEATHER SUCH AS RAIN...SNOW OR FOG.

NEZ001>004-019>022-054>056-210500-
NEBRASKA PANHANDLE

CITY           SKY/WX    TMP DP  RH WIND       PRES   REMARKS
SCOTTSBLUFF    CLOUDY    27  22  81 CALM      29.90F
ALLIANCE       MOCLDY    20  19  96 S6        29.89F WCI  12
CHADRON        CLOUDY    28  23  81 W5        29.87F WCI  23
SIDNEY         CLOUDY    32  24  72 W5        29.92F WCI  27
$$

NEZ057>060-069>072-079>082-210500-
SOUTHWEST NEBRASKA

CITY           SKY/WX    TMP DP  RH WIND       PRES   REMARKS
NORTH PLATTE   CLEAR     22  20  92 NW7       29.93F WCI  13
IMPERIAL       PTCLDY    31  25  78 W5        29.93F WCI  26
MCCOOK         PTCLDY    30  26  85 W5        29.93F WCI  25
$$

NEZ005>010-023>029-035>040-094-210500-
NORTH CENTRAL NEBRASKA

CITY           SKY/WX    TMP DP  RH WIND       PRES   REMARKS
VALENTINE      CLOUDY    32  27  81 W6        29.89F WCI  26
BROKEN BOW     CLEAR     29  26  89 CALM      29.92S
$$

NEZ041-046>049-061>064-073>077-083>087-210500-
SOUTH CENTRAL NEBRASKA

CITY           SKY/WX    TMP DP  RH WIND       PRES   REMARKS
GRAND ISLAND   MOCLDY    27  25  92 S3        29.96F FOG
HASTINGS       PTCLDY    32  31  96 S6        29.94F FOG     WCI  26
KEARNEY *      CLEAR     32  28  86 SW8       29.94S WCI  25
$$

NEZ011>018-030>034-042>045-210500-
NORTHEAST NEBRASKA

CITY           SKY/WX    TMP DP  RH WIND       PRES   REMARKS
NORFOLK        FOG       32  31  96 S7        29.97S VSB 1/2 WCI  26
BLAIR          CLOUDY    34  32  92 SE5       30.01F FOG     WCI  30
COLUMBUS *     CLOUDY    34  28  80 SE6       29.99F WCI  29
TEKAMAH        CLOUDY    34  32  92 SE8       30.03F FOG     WCI  27
$$

NEZ050>053-065>068-078-088>093-210500-
SOUTHEAST NEBRASKA

CITY           SKY/WX    TMP DP  RH WIND       PRES   REMARKS
LINCOLN        FOG       37  35  92 SE9       30.02F VSB 1/2 WCI  30
OMAHA EPPLEY   CLOUDY    34  33  96 SE9       30.04F FOG     WCI  27
FALLS CITY     PTCLDY    33  31  92 SE6       30.06F FOG     WCI  28
$$

NEZ044-045-051>053-067-210500-
OMAHA AREA

CITY           SKY/WX    TMP DP  RH WIND       PRES   REMARKS
OMAHA EPPLEY   CLOUDY    34  33  96 SE9       30.04F FOG     WCI  27
BLAIR          CLOUDY    34  32  92 SE5       30.01F FOG     WCI  30
OFFUTT AFB     FOG       34  33  97 SE8       30.03F VSB 1/2 WCI  27
$$


USA.gov is the U.S. government's official web portal to all federal, state and local government web resources and services.